Regional Weather Roundup
Issued by NWS State College, PA

Home | Current Version | Previous Version | Graphics & Text | Print | Product List | Glossary On
Versions: 1 2 3 4 5 6 7 8 9 10 11 12 13 14 15 16 17 18 19 20 21 22 23 24 25 26 27 28 29 30 31 32 33 34 35 36 37 38 39 40 41 42 43 44 45 46 47 48 49 50
000
ASUS41 KCTP 171703
RWRCTP

REGIONAL WEATHER ROUNDUP
NATIONAL WEATHER SERVICE STATE COLLEGE PA
100 PM EDT FRI APR 17 2015

Note: "fair" indicates few or no clouds below 12,000 feet with no
significant weather and/or obstructions to visibility.

* = STATION THAT DOES NOT REPORT PRECIPITATION /E.G. RAIN...SNOW...ETC/
    THUNDER OR FOG.

PAZ002>004-007>009-013>016-020>023-029>032-171800-
WESTERN PENNSYLVANIA

CITY           SKY/WX    TMP DP  RH WIND       PRES   REMARKS
ERIE           CLOUDY    54  48  80 W8        30.08F HAZE
MEADVILLE      CLOUDY    60  51  72 NW8       30.07S HAZE
FRANKLIN*      CLOUDY    55  52  88 W7        30.09F
NEW CASTLE     PTSUNNY   61  55  80 CALM      30.09F
BEAVER COUNTY  CLOUDY    61  54  77 NW6       30.09S
BUTLER*        CLOUDY    59  54  82 NW6       30.10S
PITTSBURGH INT PTSUNNY   64  54  69 W8        30.07F
PITTSBURGH     CLOUDY    63  52  67 VRB5      30.06F
INDIANA*       CLOUDY    59  55  88 W6        30.11S
LATROBE        CLOUDY    63  59  88 SW9       30.09F
WASHINGTON CO* CLOUDY    64  54  68 W8        30.10S
$$

PAZ004>006-010>012-017>019-024>028-033>037-041-042-045-046-049>053-171800-
CENTRAL PENNSYLVANIA

CITY           SKY/WX    TMP DP  RH WIND       PRES   REMARKS
BRADFORD       CLOUDY    57  52  83 W10G18    30.05R
DUBOIS         CLOUDY    58  53  84 W9        30.06R
CLEARFIELD     CLOUDY    59  53  80 SW10      30.05F
JOHNSTOWN      CLOUDY    56  54  93 SW8       30.07F
ALTOONA        CLOUDY    64  55  72 W9        30.05F
STATE COLLEGE  CLOUDY    63  55  77 W7        30.03F
WILLIAMSPORT   PTSUNNY   64  54  69 W8        30.00F
SELINSGROVE    CLOUDY    66  56  70 VRB3      30.02F
FT INDIANTOWN  PTSUNNY   66  55  68 SW6       30.02F
CAPITAL CITY   PTSUNNY   68  55  63 W8        30.02F
HARRISBURG     CLOUDY    68  55  63 NW8       30.02F
YORK           CLOUDY    68  56  65 W8        30.03F
$$

PAZ038>040-043-044-047-048-054-055-060>062-067>071-171800-
EASTERN PENNSYLVANIA

CITY           SKY/WX    TMP DP  RH WIND       PRES   REMARKS
SCRANTON       CLOUDY    61  52  72 SW13      29.99F
MOUNT POCONO   CLOUDY    58  52  80 W12       30.00F
ALLENTOWN      CLOUDY    64  55  72 W9        30.01F
QUAKERTOWN*    CLOUDY    63  55  77 W6        30.03F
READING        CLOUDY    66  55  67 W9        30.01F
LANCASTER      PTSUNNY   68  57  68 NW12      30.01F
COATESVILLE    CLOUDY    66  57  72 W5        30.03F
POTTSTOWN      CLOUDY    65  56  72 W5        30.02F
BLUE BELL      PTSUNNY   66  57  72 W6        30.01F
DOYLESTOWN     CLOUDY    62  55  77 SW9       30.01F
WILLOW GROVE   NOT AVBL
NORTH PHILA    PTSUNNY   68  56  65 W13       30.03F
PHILADELPHIA   MOSUNNY   66  57  72 SW12      30.03F
$$


USA.gov is the U.S. government's official web portal to all federal, state and local government web resources and services.